,,,PA_Meas_PMT16A,,PR_Meas_QMR101_102,,RH_Meas_QMH101,,SR_Meas_QMS101,,TA_Meas_QMH101,,GenWind,,GenWind,
date,time,status,PA,status,PR,status,RH,status,SR,status,TA,status,DirAvg,status,SpdAvg,
2010-05-29, 00:00:04,VALID,1002.17,VALID,0,VALID,93.6612,VALID,0,VALID,24.4818,VALID,91,VALID,0.703516,
2010-05-29, 00:01:04,VALID,1002.18,VALID,0,VALID,93.44,VALID,0,VALID,24.3647,VALID,54,VALID,0.787109,
2010-05-29, 00:02:04,VALID,1002.17,VALID,0,VALID,93.3866,VALID,0,VALID,24.3062,VALID,69,VALID,1.00156,
2010-05-29, 00:03:04,VALID,1002.17,VALID,0,VALID,93.3789,VALID,0,VALID,24.3062,VALID,72,VALID,1.01602,
2010-05-29, 00:04:04,VALID,1002.13,VALID,0,VALID,93.3331,VALID,0,VALID,24.3062,VALID,64,VALID,0.919922,
2010-05-29, 00:05:04,VALID,1002.13,VALID,0,VALID,93.089,VALID,0,VALID,24.2086,VALID,56,VALID,0.661328,
2010-05-29, 00:06:04,VALID,1002.13,VALID,0,VALID,93.0051,VALID,0,VALID,24.15,VALID,55,VALID,0.659766,
2010-05-29, 00:07:04,VALID,1002.13,VALID,0,VALID,92.944,VALID,0,VALID,24.15,VALID,46,VALID,0.741406,
2010-05-29, 00:08:04,VALID,1002.1,VALID,0,VALID,92.822,VALID,0,VALID,24.0915,VALID,39,VALID,0.779688,
2010-05-29, 00:09:04,VALID,1002.11,VALID,0,VALID,92.8601,VALID,0,VALID,24.0525,VALID,36,VALID,0.671484,
2010-05-29, 00:10:04,VALID,1002.1,VALID,0,VALID,92.9364,VALID,0,VALID,24.0329,VALID,26,VALID,0.722656,
2010-05-29, 00:11:04,VALID,1002.11,VALID,0,VALID,93.0356,VALID,0,VALID,24.0525,VALID,3,VALID,0.742969,
2010-05-29, 00:12:04,VALID,1002.1,VALID,0,VALID,93.0585,VALID,0,VALID,24.0329,VALID,353,VALID,0.688281,
2010-05-29, 00:13:04,VALID,1002.08,VALID,0,VALID,93.0585,VALID,0,VALID,24.0329,VALID,352,VALID,1.01602,
2010-05-29, 00:14:04,VALID,1002.08,VALID,0,VALID,93.1805,VALID,0,VALID,24.0525,VALID,349,VALID,1.10625,
2010-05-29, 00:15:04,VALID,1002.09,VALID,0,VALID,93.2034,VALID,0,VALID,24.0329,VALID,347,VALID,0.830469,
2010-05-29, 00:16:04,VALID,1002.09,VALID,0,VALID,93.2645,VALID,0,VALID,24.0525,VALID,345,VALID,0.789453,
2010-05-29, 00:17:04,VALID,1002.08,VALID,0,VALID,93.3331,VALID,0,VALID,24.0525,VALID,345,VALID,0.617188,
2010-05-29, 00:18:04,VALID,1002.11,VALID,0,VALID,93.3484,VALID,0,VALID,24.072,VALID,340,VALID,0.426953,
2010-05-29, 00:19:04,VALID,1002.1,VALID,0,VALID,93.4323,VALID,0,VALID,24.111,VALID,340,VALID,0.155469,
2010-05-29, 00:20:04,VALID,1002.1,VALID,0,VALID,93.44,VALID,0,VALID,24.15,VALID,227,VALID,1.12891,
2010-05-29, 00:21:04,VALID,1002.11,VALID,0,VALID,93.4934,VALID,0,VALID,24.2086,VALID,215,VALID,1.58477,
2010-05-29, 00:22:04,VALID,1002.12,VALID,0,VALID,93.5315,VALID,0,VALID,24.2866,VALID,215,VALID,1.56289,
2010-05-29, 00:23:04,VALID,1002.11,VALID,0,VALID,93.5544,VALID,0,VALID,24.3257,VALID,219,VALID,1.0625,
2010-05-29, 00:24:04,VALID,1002.05,VALID,0,VALID,93.5468,VALID,0,VALID,24.3842,VALID,233,VALID,0.688672,
2010-05-29, 00:25:04,VALID,1002.05,VALID,0,VALID,93.562,VALID,0,VALID,24.3842,VALID,234,VALID,0.599609,
2010-05-29, 00:26:04,VALID,1002.07,VALID,0,VALID,93.501,VALID,0,VALID,24.4037,VALID,239,VALID,0.791406,
2010-05-29, 00:27:04,VALID,1002.03,VALID,0,VALID,93.4781,VALID,0,VALID,24.4233,VALID,233,VALID,1.03164,
2010-05-29, 00:28:04,VALID,1002.01,VALID,0,VALID,93.4628,VALID,0,VALID,24.4623,VALID,238,VALID,1.07109,
2010-05-29, 00:29:04,VALID,1001.97,VALID,0,VALID,93.4094,VALID,0,VALID,24.4623,VALID,242,VALID,0.829297,
2010-05-29, 00:30:04,VALID,1001.96,VALID,0,VALID,93.3713,VALID,0,VALID,24.4428,VALID,240,VALID,0.375,
2010-05-29, 00:31:04,VALID,1001.95,VALID,0,VALID,93.3026,VALID,0,VALID,24.4428,VALID,240,VALID,0.31875,
2010-05-29, 00:32:04,VALID,1001.95,VALID,0,VALID,93.2721,VALID,0,VALID,24.4233,VALID,251,VALID,0.438672,
2010-05-29, 00:33:04,VALID,1001.92,VALID,0,VALID,93.2721,VALID,0,VALID,24.4037,VALID,263,VALID,0.270312,
2010-05-29, 00:34:04,VALID,1001.95,VALID,0,VALID,93.2416,VALID,0,VALID,24.3842,VALID,263,VALID,0,
2010-05-29, 00:35:04,VALID,1001.94,VALID,0,VALID,93.234,VALID,0,VALID,24.3647,VALID,263,VALID,0,
2010-05-29, 00:36:04,VALID,1001.95,VALID,0,VALID,93.2187,VALID,0,VALID,24.3452,VALID,263,VALID,0,
2010-05-29, 00:37:04,VALID,1001.91,VALID,0,VALID,93.1653,VALID,0,VALID,24.3062,VALID,263,VALID,0,
2010-05-29, 00:38:04,VALID,1001.87,VALID,0,VALID,93.1882,VALID,0,VALID,24.3062,VALID,263,VALID,0,
2010-05-29, 00:39:04,VALID,1001.85,VALID,0,VALID,93.2263,VALID,0,VALID,24.308,VALID,263,VALID,0,
2010-05-29, 00:40:04,VALID,1001.83,VALID,0,VALID,93.2492,VALID,0,VALID,24.2671,VALID,263,VALID,0,
2010-05-29, 00:41:04,VALID,1001.79,VALID,0,VALID,93.2492,VALID,0,VALID,24.2476,VALID,263,VALID,0,
2010-05-29, 00:42:04,VALID,1001.77,VALID,0,VALID,93.2645,VALID,0,VALID,24.2086,VALID,263,VALID,0,
2010-05-29, 00:43:04,VALID,1001.74,VALID,0,VALID,93.3026,VALID,0,VALID,24.2281,VALID,263,VALID,0,
2010-05-29, 00:44:04,VALID,1001.73,VALID,0,VALID,93.3026,VALID,0,VALID,24.2281,VALID,263,VALID,0,
2010-05-29, 00:45:04,VALID,1001.7,VALID,0,VALID,93.356,VALID,0,VALID,24.2281,VALID,263,VALID,0,
2010-05-29, 00:46:04,VALID,1001.7,VALID,0,VALID,93.4018,VALID,0,VALID,24.2281,VALID,200,VALID,0.635547,
2010-05-29, 00:47:04,VALID,1001.67,VALID,0,VALID,93.4247,VALID,0,VALID,24.2281,VALID,199,VALID,0.04375,
2010-05-29, 00:48:04,VALID,1001.68,VALID,0,VALID,93.4171,VALID,0,VALID,24.2086,VALID,199,VALID,0.414844,
2010-05-29, 00:49:04,VALID,1001.69,VALID,0,VALID,93.3255,VALID,0,VALID,24.111,VALID,196,VALID,0.6,
2010-05-29, 00:50:04,VALID,1001.68,VALID,0,VALID,93.4171,VALID,0,VALID,24.1305,VALID,195,VALID,0.777734,
2010-05-29, 00:51:04,VALID,1001.69,VALID,0,VALID,93.4781,VALID,0,VALID,24.1696,VALID,24,VALID,0.916016,
2010-05-29, 00:52:04,VALID,1001.65,VALID,0,VALID,93.4781,VALID,0,VALID,24.15,VALID,24,VALID,0.95,
2010-05-29, 00:53:04,VALID,1001.64,VALID,0,VALID,93.4857,VALID,0,VALID,24.111,VALID,30,VALID,0.871875,
2010-05-29, 00:54:04,VALID,1001.62,VALID,0,VALID,93.4247,VALID,0,VALID,24.0116,VALID,34,VALID,0.541016,
2010-05-29, 00:55:04,VALID,1001.6,VALID,0,VALID,93.3866,VALID,0,VALID,23.9744,VALID,34,VALID,0.584766,
2010-05-29, 00:56:04,VALID,1001.59,VALID,0,VALID,93.3331,VALID,0,VALID,23.8768,VALID,34,VALID,0.732031,
2010-05-29, 00:57:04,VALID,1001.6,VALID,0,VALID,93.3637,VALID,0,VALID,23.8573,VALID,34,VALID,0.760938,
2010-05-29, 00:58:04,VALID,1001.59,VALID,0,VALID,93.3942,VALID,0,VALID,23.8573,VALID,34,VALID,0.369922,
2010-05-29, 00:59:04,VALID,1001.6,VALID,0,VALID,93.3713,VALID,0,VALID,23.7988,VALID,34,VALID,0.00546875,
2010-05-29, 01:00:04,VALID,1001.59,VALID,0,VALID,93.3866,VALID,0,VALID,23.7597,VALID,34,VALID,0,
2010-05-29, 01:01:04,VALID,1001.55,VALID,0,VALID,93.44,VALID,0,VALID,23.7988,VALID,34,VALID,0,
2010-05-29, 01:02:04,VALID,1001.52,VALID,0,VALID,93.5163,VALID,0,VALID,23.8378,VALID,34,VALID,0,
2010-05-29, 01:03:04,VALID,1001.5,VALID,0,VALID,93.5849,VALID,0,VALID,23.8768,VALID,34,VALID,0,
2010-05-29, 01:04:04,VALID,1001.48,VALID,0,VALID,93.5849,VALID,0,VALID,23.875,VALID,34,VALID,0.0152344,
2010-05-29, 01:05:04,VALID,1001.47,VALID,0,VALID,93.5926,VALID,0,VALID,23.8963,VALID,34,VALID,0.705859,
2010-05-29, 01:06:04,VALID,1001.46,VALID,0,VALID,93.6154,VALID,0,VALID,23.8555,VALID,34,VALID,0.732813,
2010-05-29, 01:07:04,VALID,1001.44,VALID,0,VALID,93.6154,VALID,0,VALID,23.8768,VALID,34,VALID,0.866016,
2010-05-29, 01:08:04,VALID,1001.42,VALID,0,VALID,93.5163,VALID,0,VALID,23.7384,VALID,37,VALID,1.00898,
2010-05-29, 01:09:04,VALID,1001.42,VALID,0,VALID,93.5544,VALID,0,VALID,23.7384,VALID,37,VALID,0.812109,
2010-05-29, 01:10:04,VALID,1001.4,VALID,0,VALID,93.6002,VALID,0,VALID,23.7793,VALID,37,VALID,0.824609,
2010-05-29, 01:11:04,VALID,1001.37,VALID,0,VALID,93.6154,VALID,0,VALID,23.7988,VALID,37,VALID,0.755469,
2010-05-29, 01:12:04,VALID,1001.36,VALID,0,VALID,93.6002,VALID,0,VALID,23.7793,VALID,38,VALID,0.927734,
2010-05-29, 01:13:04,VALID,1001.34,VALID,0,VALID,93.5544,VALID,0,VALID,23.7597,VALID,38,VALID,0.621484,
2010-05-29, 01:14:04,VALID,1001.29,VALID,0,VALID,93.5163,VALID,0,VALID,23.7012,VALID,38,VALID,0.380078,
2010-05-29, 01:15:04,VALID,1001.31,VALID,0,VALID,93.4857,VALID,0,VALID,23.6817,VALID,38,VALID,0.289453,
2010-05-29, 01:16:04,VALID,1001.29,VALID,0,VALID,93.5086,VALID,0,VALID,23.7012,VALID,38,VALID,0.503906,
2010-05-29, 01:17:04,VALID,1001.28,VALID,0,VALID,93.5773,VALID,0,VALID,23.7402,VALID,38,VALID,0.334766,
2010-05-29, 01:18:04,VALID,1001.27,VALID,0,VALID,93.6154,VALID,0,VALID,23.7402,VALID,38,VALID,0.282813,
2010-05-29, 01:19:04,VALID,1001.26,VALID,0,VALID,93.6154,VALID,0,VALID,23.7793,VALID,38,VALID,0.159375,
2010-05-29, 01:20:04,VALID,1001.24,VALID,0,VALID,93.6536,VALID,0,VALID,23.7988,VALID,38,VALID,0.277734,
2010-05-29, 01:21:04,VALID,1001.21,VALID,0,VALID,93.6612,VALID,0,VALID,23.7988,VALID,38,VALID,0,
2010-05-29, 01:22:04,VALID,1001.18,VALID,0,VALID,93.6765,VALID,0,VALID,23.7988,VALID,38,VALID,0,
2010-05-29, 01:23:04,VALID,1001.2,VALID,0,VALID,93.6841,VALID,0,VALID,23.7988,VALID,38,VALID,0,
2010-05-29, 01:24:04,VALID,1001.17,VALID,0,VALID,93.6841,VALID,0,VALID,23.797,VALID,38,VALID,0,
2010-05-29, 01:25:04,VALID,1001.18,VALID,0,VALID,93.7146,VALID,0,VALID,23.8378,VALID,38,VALID,0,
2010-05-29, 01:26:04,VALID,1001.17,VALID,0,VALID,93.7299,VALID,0,VALID,23.8378,VALID,38,VALID,0,
2010-05-29, 01:27:04,VALID,1001.14,VALID,0,VALID,93.7451,VALID,0,VALID,23.836,VALID,38,VALID,0,
2010-05-29, 01:28:04,VALID,1001.13,VALID,0,VALID,93.768,VALID,0,VALID,23.836,VALID,38,VALID,0,
2010-05-29, 01:29:04,VALID,1001.09,VALID,0,VALID,93.7528,VALID,0,VALID,23.8573,VALID,38,VALID,0,
2010-05-29, 01:30:04,VALID,1001.12,VALID,0,VALID,93.7451,VALID,0,VALID,23.8165,VALID,38,VALID,0,
2010-05-29, 01:31:04,VALID,1001.11,VALID,0,VALID,93.7528,VALID,0,VALID,23.8183,VALID,38,VALID,0,
2010-05-29, 01:32:04,VALID,1001.09,VALID,0,VALID,93.7451,VALID,0,VALID,23.8183,VALID,38,VALID,0,
2010-05-29, 01:33:04,VALID,1001.08,VALID,0,VALID,93.7299,VALID,0,VALID,23.8378,VALID,38,VALID,0,
2010-05-29, 01:34:04,VALID,1001.07,VALID,0,VALID,93.7604,VALID,0,VALID,23.8378,VALID,38,VALID,0,
2010-05-29, 01:35:04,VALID,1001.07,VALID,0,VALID,93.7451,VALID,0,VALID,23.797,VALID,38,VALID,0,
2010-05-29, 01:36:04,VALID,1001.02,VALID,0,VALID,93.7299,VALID,0,VALID,23.7988,VALID,38,VALID,0,
2010-05-29, 01:37:04,VALID,1001.01,VALID,0,VALID,93.7451,VALID,0,VALID,23.7988,VALID,38,VALID,0,
2010-05-29, 01:38:04,VALID,1001.02,VALID,0,VALID,93.7757,VALID,0,VALID,23.8378,VALID,38,VALID,0,
2010-05-29, 01:39:04,VALID,1001.04,VALID,0,VALID,93.7833,VALID,0,VALID,23.8378,VALID,38,VALID,0.446484,
2010-05-29, 01:40:04,VALID,1001,VALID,0,VALID,93.768,VALID,0,VALID,23.8555,VALID,38,VALID,0.460547,
2010-05-29, 01:41:04,VALID,1001.01,VALID,0,VALID,93.768,VALID,0,VALID,23.8573,VALID,38,VALID,0.473437,
2010-05-29, 01:42:04,VALID,1000.99,VALID,0,VALID,93.7375,VALID,0,VALID,23.8768,VALID,127,VALID,0.689844,
2010-05-29, 01:43:04,VALID,1000.98,VALID,0,VALID,93.7299,VALID,0,VALID,23.8573,VALID,127,VALID,0.637109,
2010-05-29, 01:44:04,VALID,1000.96,VALID,0,VALID,93.7299,VALID,0,VALID,23.8963,VALID,144,VALID,0.688281,
2010-05-29, 01:45:04,VALID,1000.92,VALID,0,VALID,93.7223,VALID,0,VALID,23.9159,VALID,144,VALID,0.542188,
2010-05-29, 01:46:04,VALID,1000.94,VALID,0,VALID,93.6994,VALID,0,VALID,23.9159,VALID,144,VALID,0.489844,
2010-05-29, 01:47:04,VALID,1000.92,VALID,0,VALID,93.6612,VALID,0,VALID,23.9354,VALID,144,VALID,0.513281,
2010-05-29, 01:48:04,VALID,1000.88,VALID,0,VALID,93.6002,VALID,0,VALID,23.9159,VALID,144,VALID,0.490625,
2010-05-29, 01:49:04,VALID,1000.86,VALID,0,VALID,93.5086,VALID,0,VALID,23.8963,VALID,144,VALID,0.597266,
2010-05-29, 01:50:04,VALID,1000.87,VALID,0,VALID,93.44,VALID,0,VALID,23.8768,VALID,144,VALID,0.502734,
2010-05-29, 01:51:04,VALID,1000.85,VALID,0,VALID,93.3789,VALID,0,VALID,23.8573,VALID,144,VALID,0.250391,
2010-05-29, 01:52:04,VALID,1000.8,VALID,0,VALID,93.3103,VALID,0,VALID,23.8378,VALID,144,VALID,0,
2010-05-29, 01:53:04,VALID,1000.83,VALID,0,VALID,93.2263,VALID,0,VALID,23.8183,VALID,144,VALID,0,
2010-05-29, 01:54:04,VALID,1000.82,VALID,0,VALID,93.1882,VALID,0,VALID,23.7775,VALID,144,VALID,0.133984,
2010-05-29, 01:55:04,VALID,1000.81,VALID,0,VALID,93.1958,VALID,0,VALID,23.7988,VALID,144,VALID,0,
2010-05-29, 01:56:04,VALID,1000.81,VALID,0,VALID,93.2492,VALID,0,VALID,23.8183,VALID,144,VALID,0,
2010-05-29, 01:57:04,VALID,1000.81,VALID,0,VALID,93.3026,VALID,0,VALID,23.8378,VALID,144,VALID,0,
2010-05-29, 01:58:04,VALID,1000.79,VALID,0,VALID,93.3408,VALID,0,VALID,23.8378,VALID,144,VALID,0,
2010-05-29, 01:59:04,VALID,1000.78,VALID,0,VALID,93.3866,VALID,0,VALID,23.8378,VALID,144,VALID,0,
2010-05-29, 02:00:04,VALID,1000.78,VALID,0,VALID,93.3637,VALID,0,VALID,23.8183,VALID,144,VALID,0,
2010-05-29, 02:01:04,VALID,1000.8,VALID,0,VALID,93.2416,VALID,0,VALID,23.7207,VALID,144,VALID,0.686328,
2010-05-29, 02:02:04,VALID,1000.8,VALID,0,VALID,93.3942,VALID,0,VALID,23.7793,VALID,153,VALID,1.38711,
2010-05-29, 02:03:04,VALID,1000.8,VALID,0,VALID,93.3942,VALID,0,VALID,23.7793,VALID,139,VALID,1.21875,
2010-05-29, 02:04:04,VALID,1000.79,VALID,0,VALID,93.356,VALID,0,VALID,23.7793,VALID,136,VALID,0.970703,
2010-05-29, 02:05:04,VALID,1000.8,VALID,0,VALID,93.3026,VALID,0,VALID,23.7402,VALID,134,VALID,0.925781,
2010-05-29, 02:06:04,VALID,1000.8,VALID,0,VALID,93.2263,VALID,0,VALID,23.7207,VALID,133,VALID,0.907031,
2010-05-29, 02:07:04,VALID,1000.78,VALID,0,VALID,93.1348,VALID,0,VALID,23.6817,VALID,133,VALID,0.575391,
2010-05-29, 02:08:04,VALID,1000.78,VALID,0,VALID,93.1195,VALID,0,VALID,23.6622,VALID,144,VALID,0.630078,
2010-05-29, 02:09:04,VALID,1000.81,VALID,0,VALID,93.1653,VALID,0,VALID,23.6817,VALID,151,VALID,0.835938,
2010-05-29, 02:10:04,VALID,1000.79,VALID,0,VALID,93.2568,VALID,0,VALID,23.7012,VALID,151,VALID,0.657422,
2010-05-29, 02:11:04,VALID,1000.83,VALID,0,VALID,93.2263,VALID,0,VALID,23.6817,VALID,151,VALID,0.554297,
2010-05-29, 02:12:04,VALID,1000.84,VALID,0,VALID,93.2111,VALID,0,VALID,23.6622,VALID,150,VALID,0.467969,
2010-05-29, 02:13:04,VALID,1000.85,VALID,0,VALID,93.1653,VALID,0,VALID,23.6427,VALID,132,VALID,0.569531,
2010-05-29, 02:14:04,VALID,1000.86,VALID,0,VALID,93.1119,VALID,0,VALID,23.6232,VALID,105,VALID,0.657031,
2010-05-29, 02:15:04,VALID,1000.86,VALID,0,VALID,93.089,VALID,0,VALID,23.6036,VALID,103,VALID,0.569141,
2010-05-29, 02:16:04,VALID,1000.86,VALID,0,VALID,93.1043,VALID,0,VALID,23.6036,VALID,104,VALID,0.638281,
2010-05-29, 02:17:04,VALID,1000.88,VALID,0,VALID,93.1729,VALID,0,VALID,23.6232,VALID,104,VALID,0.983594,
2010-05-29, 02:18:04,VALID,1000.85,VALID,0,VALID,93.2492,VALID,0,VALID,23.6232,VALID,101,VALID,1.26758,
2010-05-29, 02:19:04,VALID,1000.86,VALID,0,VALID,93.3026,VALID,0,VALID,23.6427,VALID,93,VALID,1.11992,
2010-05-29, 02:20:04,VALID,1000.87,VALID,0,VALID,93.3255,VALID,0,VALID,23.6409,VALID,71,VALID,0.872656,
2010-05-29, 02:21:04,VALID,1000.87,VALID,0,VALID,93.2797,VALID,0,VALID,23.6427,VALID,75,VALID,0.532422,
2010-05-29, 02:22:04,VALID,1000.9,VALID,0,VALID,93.2263,VALID,0,VALID,23.6232,VALID,75,VALID,0.111719,
2010-05-29, 02:23:04,VALID,1000.88,VALID,0,VALID,93.1805,VALID,0,VALID,23.5841,VALID,75,VALID,0.00351562,
2010-05-29, 02:24:04,VALID,1000.88,VALID,0,VALID,93.1729,VALID,0,VALID,23.6054,VALID,74,VALID,0.370313,
2010-05-29, 02:25:04,VALID,1000.9,VALID,0,VALID,93.15,VALID,0,VALID,23.5841,VALID,74,VALID,0.212109,
2010-05-29, 02:26:04,VALID,1000.9,VALID,0,VALID,93.1653,VALID,0,VALID,23.5646,VALID,74,VALID,0,
2010-05-29, 02:27:04,VALID,1000.92,VALID,0,VALID,93.15,VALID,0,VALID,23.5451,VALID,74,VALID,0,
2010-05-29, 02:28:04,VALID,1000.89,VALID,0,VALID,93.1882,VALID,0,VALID,23.5451,VALID,74,VALID,0.0335938,
2010-05-29, 02:29:04,VALID,1000.88,VALID,0,VALID,93.1653,VALID,0,VALID,23.5256,VALID,74,VALID,0,
2010-05-29, 02:30:04,VALID,1000.85,VALID,0,VALID,93.1577,VALID,0,VALID,23.5061,VALID,71,VALID,0,
2010-05-29, 02:31:04,VALID,1000.85,VALID,0,VALID,93.0966,VALID,0,VALID,23.4671,VALID,68,VALID,0,
2010-05-29, 02:32:04,VALID,1000.8,VALID,0,VALID,93.0356,VALID,0,VALID,23.428,VALID,68,VALID,0,
2010-05-29, 02:33:04,VALID,1000.83,VALID,0,VALID,93.028,VALID,0,VALID,23.389,VALID,68,VALID,0,
2010-05-29, 02:34:04,VALID,1000.86,VALID,0,VALID,93.0127,VALID,0,VALID,23.3695,VALID,68,VALID,0,
2010-05-29, 02:35:04,VALID,1000.81,VALID,0,VALID,93.028,VALID,0,VALID,23.35,VALID,68,VALID,0,
2010-05-29, 02:36:04,VALID,1000.83,VALID,0,VALID,93.0432,VALID,0,VALID,23.3305,VALID,68,VALID,0,
2010-05-29, 02:37:04,VALID,1000.82,VALID,0,VALID,93.0508,VALID,0,VALID,23.2915,VALID,68,VALID,0,
2010-05-29, 02:38:04,VALID,1000.81,VALID,0,VALID,93.15,VALID,0,VALID,23.311,VALID,21,VALID,0,
2010-05-29, 02:39:04,VALID,1000.77,VALID,0,VALID,93.2568,VALID,0,VALID,23.3305,VALID,339,VALID,0,
2010-05-29, 02:40:04,VALID,1000.77,VALID,0,VALID,93.3408,VALID,0,VALID,23.35,VALID,339,VALID,0,
2010-05-29, 02:41:04,VALID,1000.75,VALID,0,VALID,93.3484,VALID,0,VALID,23.3305,VALID,339,VALID,0,
2010-05-29, 02:42:04,VALID,1000.73,VALID,0,VALID,93.3942,VALID,0,VALID,23.35,VALID,339,VALID,0,
2010-05-29, 02:43:04,VALID,1000.7,VALID,0,VALID,93.4552,VALID,0,VALID,23.389,VALID,339,VALID,0.639844,
2010-05-29, 02:44:04,VALID,1000.71,VALID,0,VALID,93.4552,VALID,0,VALID,23.389,VALID,339,VALID,0.572266,
2010-05-29, 02:45:04,VALID,1000.7,VALID,0,VALID,93.4934,VALID,0,VALID,23.389,VALID,339,VALID,0.38125,
2010-05-29, 02:46:04,VALID,1000.66,VALID,0,VALID,93.5468,VALID,0,VALID,23.4085,VALID,339,VALID,0.659375,
2010-05-29, 02:47:04,VALID,1000.66,VALID,0,VALID,93.5544,VALID,0,VALID,23.4085,VALID,345,VALID,0.755078,
2010-05-29, 02:48:04,VALID,1000.69,VALID,0,VALID,93.5544,VALID,0,VALID,23.4085,VALID,356,VALID,0.792969,
2010-05-29, 02:49:04,VALID,1000.66,VALID,0,VALID,93.5163,VALID,0,VALID,23.3695,VALID,356,VALID,0.685547,
2010-05-29, 02:50:04,VALID,1000.71,VALID,0,VALID,93.5315,VALID,0,VALID,23.3695,VALID,356,VALID,0.485547,
2010-05-29, 02:51:04,VALID,1000.68,VALID,0,VALID,93.5239,VALID,0,VALID,23.389,VALID,356,VALID,0.256641,
2010-05-29, 02:52:04,VALID,1000.7,VALID,0,VALID,93.5391,VALID,0,VALID,23.3695,VALID,356,VALID,0.377734,
2010-05-29, 02:53:04,VALID,1000.7,VALID,0,VALID,93.5773,VALID,0,VALID,23.4085,VALID,349,VALID,0.421094,
2010-05-29, 02:54:04,VALID,1000.73,VALID,0,VALID,93.6078,VALID,0,VALID,23.428,VALID,349,VALID,0.360547,
2010-05-29, 02:55:04,VALID,1000.73,VALID,0,VALID,93.6154,VALID,0,VALID,23.4475,VALID,349,VALID,0.185937,
2010-05-29, 02:56:04,VALID,1000.73,VALID,0,VALID,93.6231,VALID,0,VALID,23.4671,VALID,349,VALID,0.147266,
2010-05-29, 02:57:04,VALID,1000.69,VALID,0,VALID,93.646,VALID,0,VALID,23.4671,VALID,349,VALID,0,
2010-05-29, 02:58:04,VALID,1000.7,VALID,0,VALID,93.6383,VALID,0,VALID,23.4866,VALID,349,VALID,0,
2010-05-29, 02:59:04,VALID,1000.72,VALID,0,VALID,93.6536,VALID,0,VALID,23.4671,VALID,349,VALID,0,
2010-05-29, 03:00:04,VALID,1000.69,VALID,0,VALID,93.6307,VALID,0,VALID,23.4671,VALID,349,VALID,0,
2010-05-29, 03:01:04,VALID,1000.69,VALID,0,VALID,93.6231,VALID,0,VALID,23.4671,VALID,349,VALID,0,
2010-05-29, 03:02:04,VALID,1000.69,VALID,0,VALID,93.6078,VALID,0,VALID,23.4475,VALID,349,VALID,0,
2010-05-29, 03:03:04,VALID,1000.7,VALID,0,VALID,93.5926,VALID,0,VALID,23.4475,VALID,349,VALID,0,
2010-05-29, 03:04:04,VALID,1000.7,VALID,0,VALID,93.5544,VALID,0,VALID,23.3872,VALID,349,VALID,0,
2010-05-29, 03:05:04,VALID,1000.67,VALID,0,VALID,93.5239,VALID,0,VALID,23.389,VALID,349,VALID,0,
2010-05-29, 03:06:04,VALID,1000.69,VALID,0,VALID,93.5239,VALID,0,VALID,23.3695,VALID,349,VALID,0,
2010-05-29, 03:07:04,VALID,1000.67,VALID,0,VALID,93.5468,VALID,0,VALID,23.389,VALID,349,VALID,0,
2010-05-29, 03:08:04,VALID,1000.71,VALID,0,VALID,93.562,VALID,0,VALID,23.3695,VALID,349,VALID,0,
2010-05-29, 03:09:04,VALID,1000.71,VALID,0,VALID,93.5163,VALID,0,VALID,23.311,VALID,349,VALID,0,
2010-05-29, 03:10:04,VALID,1000.74,VALID,0,VALID,93.5086,VALID,0,VALID,23.2915,VALID,349,VALID,0,
2010-05-29, 03:11:04,VALID,1000.72,VALID,0,VALID,93.5697,VALID,0,VALID,23.311,VALID,349,VALID,0,
2010-05-29, 03:12:04,VALID,1000.73,VALID,0,VALID,93.6154,VALID,0,VALID,23.3305,VALID,349,VALID,0,
2010-05-29, 03:13:04,VALID,1000.73,VALID,0,VALID,93.6231,VALID,0,VALID,23.3305,VALID,349,VALID,0,
2010-05-29, 03:14:04,VALID,1000.72,VALID,0,VALID,93.6231,VALID,0,VALID,23.35,VALID,349,VALID,0,
2010-05-29, 03:15:04,VALID,1000.73,VALID,0,VALID,93.6307,VALID,0,VALID,23.311,VALID,349,VALID,0,
2010-05-29, 03:16:04,VALID,1000.72,VALID,0,VALID,93.707,VALID,0,VALID,23.35,VALID,349,VALID,0,
2010-05-29, 03:17:04,VALID,1000.76,VALID,0,VALID,93.7604,VALID,0,VALID,23.389,VALID,349,VALID,0,
2010-05-29, 03:18:04,VALID,1000.74,VALID,0,VALID,93.7833,VALID,0,VALID,23.4085,VALID,349,VALID,0,
2010-05-29, 03:19:04,VALID,1000.75,VALID,0,VALID,93.7833,VALID,0,VALID,23.389,VALID,349,VALID,0,
2010-05-29, 03:20:04,VALID,1000.77,VALID,0,VALID,93.7451,VALID,0,VALID,23.3305,VALID,349,VALID,0,
2010-05-29, 03:21:04,VALID,1000.77,VALID,0,VALID,93.768,VALID,0,VALID,23.35,VALID,141,VALID,0,
2010-05-29, 03:22:04,VALID,1000.77,VALID,0,VALID,93.7604,VALID,0,VALID,23.389,VALID,140,VALID,0,
2010-05-29, 03:23:04,VALID,1000.77,VALID,0,VALID,93.7146,VALID,0,VALID,23.3305,VALID,140,VALID,0,
2010-05-29, 03:24:04,VALID,1000.77,VALID,0,VALID,93.7223,VALID,0,VALID,23.3305,VALID,141,VALID,0,
2010-05-29, 03:25:04,VALID,1000.8,VALID,0,VALID,93.6307,VALID,0,VALID,23.2524,VALID,131,VALID,0,
2010-05-29, 03:26:04,VALID,1000.82,VALID,0,VALID,93.6307,VALID,0,VALID,23.2719,VALID,123,VALID,0.513672,
2010-05-29, 03:27:04,VALID,1000.84,VALID,0,VALID,93.6307,VALID,0,VALID,23.311,VALID,69,VALID,0.726172,
2010-05-29, 03:28:04,VALID,1000.82,VALID,0,VALID,93.5239,VALID,0,VALID,23.2932,VALID,62,VALID,0.7,
2010-05-29, 03:29:04,VALID,1000.8,VALID,0,VALID,93.4171,VALID,0,VALID,23.2329,VALID,62,VALID,0.445703,
2010-05-29, 03:30:04,VALID,1000.8,VALID,0,VALID,93.3103,VALID,0,VALID,23.2134,VALID,62,VALID,0.378125,
2010-05-29, 03:31:04,VALID,1000.78,VALID,0,VALID,93.2034,VALID,0,VALID,23.1549,VALID,54,VALID,0.533203,
2010-05-29, 03:32:04,VALID,1000.75,VALID,0,VALID,93.2263,VALID,0,VALID,23.1549,VALID,29,VALID,0.680859,
2010-05-29, 03:33:04,VALID,1000.74,VALID,0,VALID,93.2874,VALID,0,VALID,23.1354,VALID,29,VALID,0.496094,
2010-05-29, 03:34:04,VALID,1000.75,VALID,0,VALID,93.3255,VALID,0,VALID,23.1549,VALID,29,VALID,0.654688,
2010-05-29, 03:35:04,VALID,1000.76,VALID,0,VALID,93.3255,VALID,0,VALID,23.1354,VALID,29,VALID,0.482031,
2010-05-29, 03:36:04,VALID,1000.74,VALID,0,VALID,93.2797,VALID,0,VALID,23.0556,VALID,29,VALID,0.0582031,
2010-05-29, 03:37:04,VALID,1000.68,VALID,0,VALID,93.2492,VALID,0,VALID,23.0378,VALID,29,VALID,0.0347656,
2010-05-29, 03:38:04,VALID,1000.69,VALID,0,VALID,93.2568,VALID,0,VALID,23.0183,VALID,29,VALID,0,
2010-05-29, 03:39:04,VALID,1000.66,VALID,0,VALID,93.2797,VALID,0,VALID,22.9988,VALID,29,VALID,0,
2010-05-29, 03:40:04,VALID,1000.63,VALID,0,VALID,93.3255,VALID,0,VALID,22.9793,VALID,29,VALID,0,
2010-05-29, 03:41:04,VALID,1000.59,VALID,0,VALID,93.4171,VALID,0,VALID,23.0183,VALID,29,VALID,0,
2010-05-29, 03:42:04,VALID,1000.56,VALID,0,VALID,93.5086,VALID,0,VALID,23.0573,VALID,29,VALID,0.102344,
2010-05-29, 03:43:04,VALID,1000.56,VALID,0,VALID,93.6002,VALID,0,VALID,23.1159,VALID,29,VALID,0.130859,
2010-05-29, 03:44:04,VALID,1000.56,VALID,0,VALID,93.6383,VALID,0,VALID,23.1354,VALID,29,VALID,0.341797,
2010-05-29, 03:45:04,VALID,1000.55,VALID,0,VALID,93.6994,VALID,0,VALID,23.1744,VALID,29,VALID,0.428516,
2010-05-29, 03:46:04,VALID,1000.58,VALID,0,VALID,93.7223,VALID,0,VALID,23.1939,VALID,29,VALID,0.352344,
2010-05-29, 03:47:04,VALID,1000.57,VALID,0,VALID,93.7223,VALID,0,VALID,23.1726,VALID,29,VALID,0.439063,
2010-05-29, 03:48:04,VALID,1000.58,VALID,0,VALID,93.7757,VALID,0,VALID,23.2347,VALID,29,VALID,0.411719,
2010-05-29, 03:49:04,VALID,1000.61,VALID,0,VALID,93.7985,VALID,0,VALID,23.2329,VALID,29,VALID,0.374609,
2010-05-29, 03:50:04,VALID,1000.6,VALID,0,VALID,93.8062,VALID,0,VALID,23.2524,VALID,29,VALID,0.370313,
2010-05-29, 03:51:04,VALID,1000.59,VALID,0,VALID,93.8062,VALID,0,VALID,23.2719,VALID,29,VALID,0.126172,